THORAD AGENA D DEB, 4655

Orbit data source: Space-Track

THORAD AGENA D DEB, 4655 is space debris in SSO originally from a launch on Wed, 08 Apr 1970 UTC launched from the Air Force Western Test Range (AFWTR). Debris objects in space refer to the collection of defunct objects orbiting the Earth. Examples of debris include non-operational satellites, rocket bodies, and fragments generated from explosions, collisions, or faulty payload assembly.

Loading next visibility...
Identifier
4655, 1970-025AP
Orbit
SSO
Country
Flag of USUS
Related business
Manufacturer
Unknown
Mission
Spacecraft
Bus & Motor
Unknown
Mass
Unknown
Launch date (UTC)
1970-04-08 (56 years ago)
Launch vehicle
Unknown
Launch site
Air Force Western Test Range (AFWTR)
Object type
Payload
Rocket body
Debris
Shape & HBR
Unknown shape, 0.1 m
Radar Cross Section
Small (<0.1 m²)

Expand to show TLE details & history
Last TLE update: 1 day ago

TLE from 1 day ago
0 THORAD AGENA D DEB
1 04655U 70025AP  26124.22455257  .00000167  00000-0  24478-3 0  9993
2 04655  99.9662 232.6535 0053668 258.3479 101.1639 13.69341871791804
Epoch: 2026-05-04T05:23Z
TLE epoch observation values (Epoch: 2026-05-04T05:23:21.342Z)
Latitude
0.00001°
Longitude
-70.30224°
Altitude
1,012.612 km
Speed
7.342 km/s
True Right ascension
15h 30m 36s
True Declination
0° 00' 00"
Sunlit
Object was in full shadow at epoch
Visualization orbit readout
Latitude
Unknown
Longitude
Unknown
Altitude
Unknown
Speed
Unknown
Apparent Right ascension
Unknown
Apparent Declination
Unknown
Sunlit
N/A
Visualization observer readout
Local Sidereal Time
17:17:47
Azimuth
Unknown
Elevation
Unknown
Doppler factor
Unknown
Orbital elements
Apogee altitude
1,038.817 km
Perigee altitude
959.631 km
Semi-major axis
7,377.361 km
Eccentricity
0.00537
Inclination
99.9662°
RAAN
232.6535°
Arg. of periapsis
258.3479°
True anomaly
101.76646°
Mean anomaly
101.1639°
Eccentric anomaly
101.46526°
Mean motion
3.42524 °/min
Orbital period
105.1 mins
BSTAR
0.00024478

Documentation

Showing up to 5 results
|